DMSP 5D-2 F13 DEB, 40412

Orbit data source: Space-Track

DMSP 5D-2 F13 DEB, 40412 is space debris in SSO originally from a launch on Fri, 24 Mar 1995 UTC launched from the Air Force Western Test Range (AFWTR). Debris objects in space refer to the collection of defunct objects orbiting the Earth. Examples of debris include non-operational satellites, rocket bodies, and fragments generated from explosions, collisions, or faulty payload assembly.

Loading next visibility...
Identifier
40412, 1995-015Z
Orbit
SSO
Country
Flag of USUS
Related business
Manufacturer
Unknown
Mission
Spacecraft
Bus & Motor
Unknown
Mass
Unknown
Launch date (UTC)
1995-03-24 (31 years ago)
Launch vehicle
Unknown
Launch site
Air Force Western Test Range (AFWTR)
Object type
Payload
Rocket body
Debris
Shape & HBR
Unknown shape, 0.1 m
Radar Cross Section
Small (<0.1 m²)

Expand to show TLE details & history
Last TLE update: 11 hours ago

TLE from 11 hours ago
0 DMSP 5D-2 F13 DEB
1 40412U 95015Z   26072.49156390  .00000326  00000-0  17036-3 0  9996
2 40412  98.7109  88.4572 0017738 286.8601  73.0631 14.20949783572346
Epoch: 2026-03-13T11:47Z
TLE epoch observation values (Epoch: 2026-03-13T11:47:51.120Z)
Latitude
-0.00002°
Longitude
100.36787°
Altitude
821.358 km
Speed
7.444 km/s
True Right ascension
05h 53m 49s
True Declination
0° 00' 00"
Sunlit
Object was in daylight at epoch
Visualization orbit readout
Latitude
Unknown
Longitude
Unknown
Altitude
Unknown
Speed
Unknown
Apparent Right ascension
Unknown
Apparent Declination
Unknown
Sunlit
N/A
Visualization observer readout
Local Sidereal Time
03:15:39
Azimuth
Unknown
Elevation
Unknown
Doppler factor
Unknown
Orbital elements
Apogee altitude
832.067 km
Perigee altitude
806.533 km
Semi-major axis
7,197.437 km
Eccentricity
0.00177
Inclination
98.7109°
RAAN
88.4572°
Arg. of periapsis
286.8601°
True anomaly
73.25767°
Mean anomaly
73.0631°
Eccentric anomaly
73.16037°
Mean motion
3.55448 °/min
Orbital period
101.28 mins
BSTAR
0.00017036
Loading maneuver chart data...
Computing Atmospheric mass density...

Documentation

Showing up to 5 results
|